WK1F-2 Weather Reports


Display with metric or nautical units.
time (UTC)temp
F
wind
direction
speed
MPH
gust
MPH
rain 1hr
in
rain 24hr
in
rain mn
in
humidity
%
barometer
mb
20211025224709 77 183 2.0 6.0 0.00 0.00 0.48 94 1008.9
20211025223909 77 100 0.0 0.0 0.00 0.00 0.48 93 1008.9
20211025223109 77 100 0.0 0.0 0.00 0.00 0.48 93 1008.8
20211025222309 77 100 0.0 3.0 0.00 0.00 0.48 93 1008.8
20211025221509 77 186 1.0 4.0 0.00 0.00 0.48 93 1008.6
20211025220709 77 97 0.0 5.0 0.00 0.00 0.48 93 1008.6
20211025215909 78 117 3.0 3.0 0.00 0.00 0.48 93 1008.6
20211025215109 78 127 2.0 4.0 0.00 0.00 0.48 93 1008.6
20211025214309 78 118 1.0 5.0 0.00 0.00 0.48 92 1008.7
20211025213509 78 141 2.0 8.0 0.00 0.00 0.48 92 1008.7
20211025212709 78 139 6.0 7.0 0.00 0.00 0.48 92 1008.5
20211025211909 78 118 5.0 4.0 0.00 0.00 0.48 93 1008.6
20211025211109 78 107 0.0 4.0 0.00 0.00 0.48 92 1008.6
20211025210309 78 122 3.0 4.0 0.00 0.00 0.48 92 1008.7
20211025205509 78 122 2.0 4.0 0.00 0.00 0.48 93 1008.8
20211025204709 78 101 2.0 0.0 0.00 0.00 0.48 93 1008.9
20211025203909 78 80 0.0 0.0 0.01 0.00 0.48 93 1008.9
20211025203109 78 80 0.0 4.0 0.01 0.00 0.48 93 1008.9
20211025202309 78 100 0.0 4.0 0.07 0.00 0.48 93 1008.9
20211025201509 77 76 0.0 6.0 0.07 0.00 0.48 93 1009.0
20211025200709 78 103 4.0 6.0 0.14 0.00 0.48 93 1009.0
20211025195909 77 66 0.0 2.0 0.18 0.00 0.48 93 1009.1
20211025195109 77 313 0.0 0.0 0.23 0.00 0.48 93 1009.3
20211025194309 77 313 0.0 0.0 0.23 0.00 0.48 92 1009.4
20211025193509 77 313 0.0 5.0 0.22 0.00 0.47 91 1009.6
20211025192709 77 340 3.0 4.0 0.20 0.00 0.45 91 1009.7
20211025191909 77 72 0.0 0.0 0.16 0.00 0.41 90 1009.6
20211025191109 78 72 0.0 0.0 0.14 0.00 0.39 89 1009.5
20211025190309 78 97 0.0 4.0 0.07 0.00 0.32 88 1009.5
20211025185509 78 129 2.0 7.0 0.02 0.00 0.27 87 1009.7
20211025184709 78 46 5.0 6.0 0.00 0.00 0.25 86 1009.7
20211025183909 79 70 3.0 6.0 0.00 0.00 0.25 86 1009.8
20211025183109 79 62 3.0 6.0 0.00 0.00 0.25 85 1010.0
20211025182309 79 49 0.0 6.0 0.00 0.00 0.25 86 1010.2
20211025181509 79 67 0.0 6.0 0.00 0.00 0.25 87 1010.2
20211025180709 78 66 5.0 6.0 0.00 0.00 0.25 86 1010.4
20211025175909 79 358 2.0 5.0 0.00 0.00 0.25 86 1010.7
20211025175109 78 48 0.0 2.0 0.00 0.00 0.25 87 1010.9
20211025174309 78 1 4.0 6.0 0.00 0.00 0.25 86 1011.2
20211025173509 78 60 6.0 2.0 0.00 0.00 0.25 88 1011.4
20211025172709 78 38 0.0 7.0 0.00 0.00 0.25 88 1011.6
20211025171909 78 49 0.0 5.0 0.00 0.00 0.25 89 1011.7
20211025171109 77 351 1.0 5.0 0.00 0.00 0.25 89 1011.9
20211025170309 77 73 6.0 7.0 0.00 0.00 0.25 90 1012.2
20211025165509 77 33 2.0 6.0 0.00 0.00 0.25 91 1012.3
20211025164709 77 33 0.0 5.0 0.00 0.00 0.25 91 1012.5
20211025163909 77 66 2.0 1.0 0.00 0.00 0.25 91 1012.7
20211025163109 77 42 0.0 4.0 0.00 0.00 0.25 92 1012.9
20211025162309 77 358 0.0 8.0 0.00 0.00 0.25 92 1013.1
20211025161509 77 22 3.0 8.0 0.00 0.00 0.25 92 1013.2
20211025160707 77 48 4.0 7.0 0.00 0.00 0.25 92 1013.3
20211025155907 76 1 2.0 8.0 0.00 0.00 0.25 94 1013.5
20211025155107 76 33 6.0 9.0 0.00 0.00 0.25 94 1013.7
20211025154307 76 45 7.0 8.0 0.00 0.00 0.25 95 1013.7
20211025153507 76 42 2.0 8.0 0.00 0.00 0.25 95 1013.8
20211025152707 76 57 3.0 6.0 0.00 0.00 0.25 96 1013.8
20211025151907 76 344 0.0 0.0 0.00 0.00 0.25 96 1014.0
20211025151107 76 344 0.0 0.0 0.00 0.00 0.25 96 1013.8
20211025150307 75 347 1.0 6.0 0.00 0.00 0.25 96 1013.9
20211025145507 75 8 4.0 7.0 0.00 0.00 0.25 96 1013.9
20211025144707 75 351 4.0 8.0 0.00 0.00 0.25 96 1014.0
20211025143907 75 351 7.0 7.0 0.00 0.00 0.25 96 1013.9
20211025143107 75 338 3.0 5.0 0.00 0.00 0.25 96 1014.0
20211025142307 75 354 3.0 5.0 0.00 0.00 0.25 96 1014.0
20211025141507 75 300 2.0 6.0 0.00 0.00 0.25 96 1013.9
20211025140707 75 331 5.0 6.0 0.00 0.00 0.25 96 1013.9
20211025135907 75 351 3.0 6.0 0.00 0.00 0.25 97 1013.8
20211025135107 75 328 4.0 8.0 0.00 0.00 0.25 96 1013.7
20211025134307 75 312 3.0 4.0 0.00 0.00 0.25 96 1013.6
20211025133507 75 336 3.0 11.0 0.00 0.00 0.25 96 1013.6
20211025132707 75 317 9.0 8.0 0.00 0.00 0.25 96 1013.6
20211025131907 75 302 3.0 7.0 0.00 0.00 0.25 96 1013.5
20211025131107 75 293 4.0 5.0 0.00 0.00 0.25 96 1013.3
20211025130307 74 319 4.0 6.0 0.00 0.00 0.25 96 1013.2
20211025125507 74 266 3.0 8.0 0.00 0.00 0.25 96 1013.3
20211025124707 74 300 1.0 6.0 0.00 0.00 0.25 96 1013.4
20211025123907 74 321 4.0 6.0 0.00 0.00 0.25 96 1013.4
20211025123107 74 272 0.0 6.0 0.01 0.00 0.25 96 1013.2
20211025122307 74 300 3.0 6.0 0.02 0.00 0.25 96 1012.8
20211025121507 74 304 3.0 6.0 0.06 0.00 0.25 96 1013.2
20211025120707 74 292 3.0 4.0 0.09 0.00 0.25 96 1013.1
20211025115907 74 331 1.0 5.0 0.09 0.00 0.25 96 1013.1
20211025115507 75 307 2.0 5.0 0.10 0.00 0.25 96 1013.0
20211025115307 75 289 2.0 5.0 0.10 0.00 0.25 96 1013.0
20211025114617 75 280 1.0 5.0 0.10 0.00 0.25 96 1013.1
20211025113817 75 304 3.0 2.0 0.12 0.00 0.25 96 1013.1
20211025113017 75 231 0.0 4.0 0.19 0.00 0.24 96 1013.3
20211025112217 75 265 1.0 3.0 0.18 0.00 0.23 96 1013.3
20211025111417 75 295 0.0 3.0 0.13 0.00 0.18 96 1013.2
20211025110617 75 300 0.0 4.0 0.11 0.00 0.16 96 1013.1
20211025105817 74 289 0.0 4.0 0.10 0.00 0.15 96 1013.1
20211025105017 74 328 3.0 0.0 0.10 0.00 0.15 96 1013.2
20211025104217 74 149 0.0 0.0 0.09 0.00 0.14 96 1013.1
20211025103417 74 149 0.0 0.0 0.06 0.00 0.11 96 1013.2
20211025102617 74 149 0.0 0.0 0.00 0.00 0.05 96 1013.2
20211025101817 74 149 0.0 0.0 0.00 0.00 0.05 96 1013.2
20211025101017 74 149 0.0 0.0 0.00 0.00 0.05 96 1013.1
20211025100217 74 149 0.0 0.0 0.00 0.00 0.05 96 1013.0
20211025095417 74 149 0.0 0.0 0.00 0.00 0.05 96 1013.0
20211025094617 74 149 0.0 0.0 0.00 0.00 0.05 96 1012.9
20211025093817 74 149 0.0 0.0 0.00 0.00 0.05 96 1013.0
20211025093017 74 149 0.0 0.0 0.00 0.00 0.05 96 1013.0
20211025092217 74 149 0.0 0.0 0.00 0.00 0.05 96 1013.0
20211025091417 74 149 0.0 0.0 0.00 0.00 0.05 96 1012.9
20211025090617 74 149 0.0 0.0 0.00 0.00 0.05 96 1013.0
20211025085817 74 149 0.0 0.0 0.01 0.00 0.05 96 1013.0
20211025085017 75 149 0.0 0.0 0.01 0.00 0.05 96 1013.1
20211025084217 75 149 0.0 0.0 0.01 0.00 0.05 96 1013.1
20211025083417 75 149 0.0 0.0 0.01 0.00 0.05 96 1013.3
20211025082617 75 149 0.0 0.0 0.01 0.00 0.05 96 1013.3
20211025081817 75 149 0.0 0.0 0.01 0.00 0.05 96 1013.4
20211025081017 75 149 0.0 0.0 0.01 0.00 0.05 96 1013.5
20211025080217 75 149 0.0 0.0 0.00 0.00 0.04 96 1013.3
20211025075417 75 149 0.0 0.0 0.00 0.00 0.04 96 1013.7
20211025074617 75 149 0.0 0.0 0.00 0.00 0.04 96 1013.9
20211025073817 75 149 0.0 0.0 0.00 0.00 0.04 96 1014.0
20211025073017 75 149 0.0 2.0 0.01 0.00 0.04 96 1013.9
20211025072217 75 144 1.0 0.0 0.01 0.00 0.04 96 1013.9
20211025071418 75 139 0.0 5.0 0.01 0.00 0.04 96 1014.0
20211025070617 75 169 4.0 6.0 0.01 0.00 0.04 96 1014.0
20211025065817 75 86 0.0 5.0 0.01 0.00 0.04 96 1014.0
20211025065017 75 142 2.0 5.0 0.01 0.00 0.04 96 1014.2
20211025064217 75 149 2.0 6.0 0.01 0.00 0.04 96 1014.2
20211025063417 75 136 3.0 6.0 0.00 0.00 0.03 96 1014.4
20211025062618 75 149 2.0 6.0 0.00 0.00 0.03 96 1014.3
20211025061818 75 131 3.0 6.0 0.00 0.00 0.03 96 1014.3
20211025061017 75 111 3.0 7.0 0.01 0.00 0.03 96 1014.4
20211025060218 75 144 4.0 7.0 0.01 0.00 0.03 96 1014.7
20211025055418 75 148 3.0 7.0 0.01 0.00 0.03 96 1014.9
20211025054617 75 159 2.0 7.0 0.01 0.00 0.03 96 1015.0
20211025053817 75 141 5.0 5.0 0.02 0.00 0.03 96 1015.0
20211025053018 75 131 3.0 5.0 0.02 0.00 0.03 96 1015.1
20211025052218 75 172 0.0 6.0 0.03 0.00 0.03 95 1015.2
20211025051418 75 159 1.0 8.0 0.02 0.00 0.02 95 1015.3
20211025050618 75 104 3.0 6.0 0.02 0.00 0.02 95 1015.4
20211025045817 75 124 0.0 3.0 0.02 0.00 0.02 95 1015.5
20211025045018 75 144 0.0 6.0 0.02 0.00 0.02 95 1015.7
20211025044218 75 173 4.0 6.0 0.02 0.00 0.02 95 1015.9
20211025043417 74 117 3.0 6.0 0.01 0.00 0.01 95 1016.1
20211025042618 74 193 4.0 8.0 0.00 0.00 0.00 95 1016.4
20211025041818 74 144 4.0 4.0 0.00 0.00 0.00 95 1016.4
20211025041018 74 115 0.0 0.0 0.00 0.00 0.00 95 1016.5
20211025040218 74 115 0.0 0.0 0.00 0.00 0.00 95 1016.6
20211025035417 74 115 0.0 0.0 0.00 0.00 0.35 95 1016.6
20211025034617 74 115 0.0 3.0 0.02 0.00 0.35 95 1016.5
20211025033818 74 194 0.0 4.0 0.04 0.00 0.35 95 1016.6
20211025033017 74 163 1.0 5.0 0.33 0.00 0.35 95 1016.5
20211025032217 74 132 3.0 4.0 0.34 0.00 0.35 94 1016.7
20211025031417 74 153 2.0 4.0 0.34 0.00 0.35 94 1016.6
20211025030617 74 73 0.0 3.0 0.34 0.00 0.35 94 1016.7
20211025025817 74 94 4.0 7.0 0.34 0.00 0.35 94 1016.6
20211025025017 74 180 3.0 8.0 0.34 0.00 0.35 93 1016.7
20211025024218 75 163 4.0 14.0 0.31 0.00 0.32 93 1016.6
20211025023417 76 121 9.0 11.0 0.15 0.00 0.16 93 1016.6
20211025022617 76 86 3.0 7.0 0.00 0.00 0.01 93 1016.4
20211025021817 76 38 3.0 6.0 0.00 0.00 0.01 92 1016.2
20211025021018 76 355 3.0 4.0 0.00 0.00 0.01 91 1016.3
20211025020217 76 70 3.0 4.0 0.00 0.00 0.01 91 1016.5
20211025015417 76 48 0.0 5.0 0.01 0.00 0.01 90 1016.5
20211025014617 76 38 0.0 4.0 0.01 0.00 0.01 90 1016.5
20211025013817 76 32 3.0 4.0 0.01 0.00 0.01 89 1016.5
20211025013017 76 52 0.0 4.0 0.01 0.00 0.01 89 1016.5
20211025012217 77 49 0.0 2.0 0.01 0.00 0.01 88 1016.6
20211025011417 77 87 2.0 5.0 0.01 0.00 0.01 88 1016.7
20211025010617 77 115 1.0 8.0 0.01 0.00 0.01 87 1016.7
20211025005818 77 118 0.0 8.0 0.01 0.00 0.01 86 1016.8
20211025005017 77 49 6.0 10.0 0.00 0.00 0.00 86 1016.8
20211025004217 77 53 1.0 9.0 0.00 0.00 0.00 86 1016.9
20211025003417 77 45 7.0 10.0 0.00 0.00 0.00 86 1016.8
20211025002617 77 8 6.0 10.0 0.00 0.00 0.00 86 1016.7
20211025001818 77 73 4.0 7.0 0.00 0.00 0.00 86 1016.8
20211025001018 77 32 4.0 8.0 0.00 0.00 0.00 86 1016.7
20211025000218 77 59 3.0 7.0 0.00 0.00 0.00 86 1016.8
20211024235417 76 49 4.0 10.0 0.00 0.00 0.00 86 1016.5
20211024234617 76 72 3.0 7.0 0.00 0.00 0.00 86 1016.5
20211024233817 76 38 3.0 8.0 0.00 0.00 0.00 86 1016.5
20211024233017 76 25 5.0 6.0 0.00 0.00 0.00 86 1016.5
20211024232217 76 39 5.0 6.0 0.00 0.00 0.00 85 1016.4
20211024231417 77 50 0.0 6.0 0.00 0.00 0.00 85 1016.6
20211024230617 77 33 5.0 10.0 0.00 0.00 0.00 85 1016.4
20211024225817 77 16 1.0 8.0 0.00 0.00 0.00 85 1016.2
20211024225017 77 19 6.0 10.0 0.00 0.00 0.00 85 1016.3